This is the latest recevied weather packets stored in our database for station/object SP9TWP-3. If no packets are shown the sender has not sent any weather packets the latest 10 day(s).
| Time | Temp. | Humidity | Pressure | Rain* | Wind** | Luminosity | Snow |
|---|---|---|---|---|---|---|---|
| 1777554941 | 15.56° C | 19% | 1026.7 hPa | - | - | - | - |
| 1777554041 | 15.56° C | 19% | 1026.7 hPa | - | - | - | - |
| 1777553141 | 16.67° C | 19% | 1026.7 hPa | - | - | - | - |
| 1777552240 | 15.56° C | 20% | 1027 hPa | - | - | - | - |
| 1777551340 | 15.56° C | 21% | 1027.3 hPa | - | - | - | - |
| 1777550440 | 14.44° C | 22% | 1027.4 hPa | - | - | - | - |
| 1777549540 | 13.89° C | 23% | 1027.5 hPa | - | - | - | - |
| 1777548640 | 13.89° C | 23% | 1027.6 hPa | - | - | - | - |
| 1777548061 | 14.44° C | 23% | 1027.6 hPa | - | - | - | - |
| 1777547740 | 14.44° C | 23% | 1027.6 hPa | - | - | - | - |
| 1777546839 | 13.89° C | 26% | 1027.9 hPa | - | - | - | - |
| 1777545939 | 12.78° C | 26% | 1028.1 hPa | - | - | - | - |
| 1777545039 | 12.22° C | 28% | 1028.2 hPa | - | - | - | - |
| 1777544139 | 12.22° C | 28% | 1028.3 hPa | - | - | - | - |
| 1777543239 | 11.67° C | 30% | 1028.4 hPa | - | - | - | - |
| 1777542339 | 11.67° C | 30% | 1028.6 hPa | - | - | - | - |
| 1777541438 | 10.56° C | 31% | 1028.6 hPa | - | - | - | - |
| 1777540539 | 10.56° C | 31% | 1028.7 hPa | - | - | - | - |
| 1777539638 | 10° C | 31% | 1028.8 hPa | - | - | - | - |
| 1777538738 | 11.11° C | 31% | 1029 hPa | - | - | - | - |
| 1777537838 | 10° C | 32% | 1029.2 hPa | - | - | - | - |
| 1777536938 | 10.56° C | 32% | 1029.2 hPa | - | - | - | - |
| 1777536037 | 10.56° C | 32% | 1029.3 hPa | - | - | - | - |
| 1777535137 | 10° C | 34% | 1029.2 hPa | - | - | - | - |
| 1777534236 | 10° C | 36% | 1029.1 hPa | - | - | - | - |
* Rain since midnight (hover to see other rain measurements)
** Current wind speed in m/s (hover to see current wind gust speed)